Terug naar catalogus

DELTA 1 R/B(2)

ActiefHEO
NORAD 17563·ROCKET BODY·🇺🇸 United States

Gelanceerd Feb 26, 1987 vanaf Cape Canaveral Space Force Station

Loading…

Volgende Passages (komende 24 uur)

TLE

VersSource: Space-Track

Epoch: Sep 14, 2026, 07:27 UTC

1 17563U 87022C   26257.31064346  .00002878  00000-0  11439-2 0  9995
2 17563  17.9539 330.1486 5990700  16.7137 356.6365  4.01854029403260

Volg DELTA 1 R/B(2) in realtime met AllMySat

Download on the App Store